Location: Ansan
(43.6898°N, 0.7731°E)
Time: 08:18:29
(UTC+00:00)

Tsikada Rocket - Pass Details

Date: 15 May 2026
Orbit: 956 x 1009 km, 82.9° (Epoch: 6 June)

Event Time Altitude Azimuth Distance (km) Brightness Sun altitude
Rises 20:38:42 0° 350° (N) 3,652 7.9 -13.1°
Reaches altitude 10° 20:41:12 10° 349° (N) 2,698 7.2 -13.4°
Maximum altitude 20:47:21 78° 265° (W) 982 4.1 -14.2°
Enters shadow 20:53:28 10° 180° (S) 2,679 5.9 -15.0°
